St. Johns, AZ

9:53 PM MST on August 22, 2017 (GMT -0700)
Saint Johns Industrial

Weather History for KSJN - September, 2012

Change the Weather History Date:

Tuesday, September 25, 2012

  Actual Average (KLSB) Record (KLSB)
Temperature  
Mean Temperature 58 °F -  
Max Temperature 73 °F 86 °F 89 °F (2013)
Min Temperature 44 °F 50 °F 53 °F (2013)
Degree Days  
Heating Degree Days 6    
Growing Degree Days 8 (Base 50)    
Moisture  
Dew Point 33 °F    
Average Humidity 30    
Maximum Humidity 47    
Minimum Humidity 12    
Precipitation  
Precipitation 0.00 in - - ()
Sea Level Pressure  
Sea Level Pressure 29.85 in    
Wind  
Wind Speed 11 mph (SW)    
Max Wind Speed 28 mph    
Max Gust Speed 36 mph    
Visibility 10 miles    
Events      
Averages and records for this station are not official NWS values.
T = Trace of Precipitation, MM = Missing Value Source: NWS Daily Summary

Daily Weather History Graph

Daily Weather History Graph

Search for Another Location

Airport or City:

Trip Planner

Search our weather history database for the weather conditions in past years. The results will help you decide how hot, cold, wet, or windy it might be!

Date:

Astronomy

Sep. 25, 2012 Rise Set
Actual Time 6:08 AM MST 6:09 PM MST
Civil Twilight 5:43 AM MST 6:34 PM MST
Nautical Twilight 5:13 AM MST 7:03 PM MST
Astronomical Twilight 4:44 AM MST 7:32 PM MST
Moon 3:27 PM MST (9/25) 1:43 AM MST (9/25)
Length of Visible Light 12h 51m
Length of Day
12h 01m
Waxing Gibbous, 81% of the Moon is Illuminated
Sep 25
Waxing Gibbous
Sep 29
Full
Oct 8
Last Quarter
Oct 15
New
Oct 21
First Quarter

Hourly Weather History & Observations

Time (MST) Temp. Dew Point Humidity Pressure Visibility Wind Dir Wind Speed Gust Speed Precip Events Conditions
12:54 AM 60.1 °F 33.1 °F 36% 29.86 in 10.0 mi SW 9.2 mph - N/A   Mostly Cloudy
1:54 AM 61.0 °F 34.0 °F 36% 29.84 in 10.0 mi SW 10.4 mph - N/A   Partly Cloudy
2:54 AM 57.9 °F 34.0 °F 41% 29.85 in 10.0 mi SW 10.4 mph - N/A   Clear
3:54 AM 57.9 °F 34.0 °F 41% 29.84 in 10.0 mi SW 8.1 mph - N/A   Mostly Cloudy
4:54 AM 61.0 °F 34.0 °F 36% 29.83 in 10.0 mi SW 6.9 mph - N/A   Overcast
5:54 AM 55.0 °F 34.0 °F 45% 29.86 in 10.0 mi SSW 5.8 mph - N/A   Clear
6:54 AM 57.9 °F 35.1 °F 42% 29.88 in 10.0 mi South 9.2 mph - N/A   Clear
7:54 AM 63.0 °F 36.0 °F 37% 29.88 in 10.0 mi South 9.2 mph - N/A   Mostly Cloudy
8:54 AM 68.0 °F 37.0 °F 32% 29.89 in 10.0 mi South 8.1 mph - N/A   Mostly Cloudy
9:54 AM 75.9 °F 37.0 °F 24% 29.85 in 10.0 mi SW 15.0 mph 21.9 mph N/A   Partly Cloudy
10:54 AM 75.9 °F 36.0 °F 23% 29.84 in 10.0 mi West 23.0 mph 27.6 mph N/A   Scattered Clouds
11:54 AM 78.8 °F 33.8 °F 20% 30.07 in 10.0 mi WSW 18.4 mph 32.2 mph N/A   Scattered Clouds
12:54 PM 78.1 °F 34.0 °F 20% 29.79 in 10.0 mi WSW 27.6 mph 35.7 mph N/A   Mostly Cloudy
1:54 PM 78.1 °F 30.9 °F 18% 29.77 in 10.0 mi WSW 15.0 mph 32.2 mph N/A   Scattered Clouds
2:54 PM 77.0 °F 33.1 °F 20% 29.77 in 10.0 mi SW 18.4 mph 31.1 mph N/A   Mostly Cloudy
3:54 PM 77.0 °F 34.0 °F 21% 29.77 in 10.0 mi WSW 24.2 mph 28.8 mph N/A   Mostly Cloudy
4:54 PM 77.0 °F 32.0 °F 19% 29.76 in 10.0 mi WSW 19.6 mph 27.6 mph N/A   Scattered Clouds
5:54 PM 73.0 °F 33.1 °F 23% 29.80 in 10.0 mi WSW 15.0 mph - N/A   Scattered Clouds
6:54 PM 70.0 °F 33.1 °F 26% 29.81 in 10.0 mi WSW 10.4 mph - N/A   Clear
7:54 PM 66.0 °F 32.0 °F 28% 29.83 in 10.0 mi SW 9.2 mph - N/A   Clear
8:54 PM 63.0 °F 32.0 °F 31% 29.84 in 10.0 mi SW 9.2 mph - N/A   Clear
9:54 PM 60.8 °F 33.8 °F 36% 30.09 in 10.0 mi South 6.9 mph - N/A   Clear
10:54 PM 57.0 °F 34.0 °F 42% 29.84 in 10.0 mi South 9.2 mph - N/A   Clear
11:54 PM 54.0 °F 34.0 °F 47% 29.85 in 10.0 mi SSW 5.8 mph - N/A   Clear